Miscellaneous Local Product
Issued by NWS North Platte, NE

Home | Current Version | Previous Version | Text Only | Print | Product List | Glossary On
Versions: 1 2 3 4 5 6 7 8 9 10 11 12 13 14 15 16 17 18 19 20 21 22 23 24 25 26 27 28 29 30 31 32 33 34 35 36 37 38 39 40 41 42 43 44 45 46 47 48 49 50
000
AXUS43 KLBF 221910
MISLBF


WESTERN AND NORTH CENTRAL NEBRASKA HOURLY WEATHER ROUNDUP
NATIONAL WEATHER SERVICE NORTH PLATTE NE
200 PM CDT FRI JUL 22 2016

NOTE: "FAIR" INDICATES FEW OR NO CLOUDS BELOW 12,000 FEET WITH NO
SIGNIFICANT WEATHER AND/OR OBSTRUCTIONS TO VISIBILITY.

NOTE: STATIONS NOT REPORTING VARIABLES SUCH AS SKY/WEATHER OR
PRESSURE ARE PROVIDED BY RAWS AND APRS NETWORKS AND ARE NOT UNDER
NATIONAL WEATHER SERVICE QUALITY CONTROL.

...OBSERVATIONS IN AND NEAR THE EASTERN PANHANDLE OF NEBRASKA...

CITY           SKY/WX    TMP DP  RH WIND       PRES   REMARKS
PINE RIDGE     CLOUDY    99  47  17 SE23G33   30.05F HX  95
CHADRON        MOSUNNY  101  44  14 SE21      30.03F HX  97
ALLIANCE       CLOUDY    93  58  30 SE13      30.10F HX  92
SIDNEY         SUNNY     96  56  26 SE13G22   30.16F HX  94
CRESCENT LAKE    N/A     94  69  44 SE7         N/A  HX  99
$$

...OBSERVATIONS IN NORTHERN NEBRASKA AND FAR SOUTHERN SOUTH DAKOTA...

CITY           SKY/WX    TMP DP  RH WIND       PRES   REMARKS
WINNER         FAIR      94  72  48 SE8       30.00F HX 102
VALENTINE      CLOUDY    96  64  34 SE12      30.04F HX  98
THEDFORD       SUNNY     97  65  34 E9G17     30.06F HX  99
AINSWORTH      CLOUDY    90  75  61 E7        30.05F HX 100
O`NEILL        MOSUNNY   94  74  52 NE9       30.00F HX 103
ORD            SUNNY     95  74  50 NE8       29.97F HX 105
BROKEN BOW     SUNNY     92  77  61 NE10      30.02F HX 105
VALENTINE NWR    N/A     93  69  45 E8          N/A  HX  98
BUTTE            N/A     89  79  73 NE9         N/A  HX 104
HALSEY           N/A     95  67  39 E6          N/A  HX  98
EWING            N/A     93  82  70 CALM        N/A  HX 115
$$

...OBSERVATIONS IN SOUTHWEST NEBRASKA AND FAR NORTHEAST COLORADO...

CITY           SKY/WX    TMP DP  RH WIND       PRES   REMARKS
HOLYOKE        FAIR      99  63  30 W8        30.12S HX 100
IMPERIAL       SUNNY     96  60  30 E8        30.07F HX  96
OGALLALA       CLOUDY    96  64  34 SE8       30.08F HX  97
NORTH PLATTE   SUNNY     96  75  50 SE7       30.03F HX 108
MCCOOK         SUNNY     98  70  40 VRB7      30.02F HX 105
LEXINGTON      PTSUNNY   94  76  56 S8        30.02S HX 107
STAPLETON        N/A     93  71  48 E3          N/A  HX  99
GOTHENBURG       N/A     94  72  48 E6          N/A  HX 101
CALLAWAY         N/A     90  80  71 NE7         N/A  HX 107
$$

...OBSERVATIONS IN CENTRAL LINCOLN COUNTY AREA...

CITY           SKY/WX    TMP DP  RH WIND       PRES   REMARKS
N.P. AIRPORT   SUNNY     96  75  50 SE7       30.03F HX 108
N.P. DOWNTOWN    N/A     95  74  50 E3          N/A  HX 105
N.P. HILLCREST   N/A     94  69  44 E8          N/A  HX  99
$$

...SOME OBSERVATIONS FROM AROUND THE REGION...

CITY           SKY/WX    TMP DP  RH WIND       PRES   REMARKS
DENVER         MOSUNNY   92  45  19 NW3       30.22F
LARAMIE        SUNNY     84  44  24 SW10G18   30.36F
CHEYENNE       CLOUDY    87  44  22 CALM      30.27F
SCOTTSBLUFF    MOSUNNY   94  64  37 SE7       30.11F HX  95
RAPID CITY     CLOUDY   101  55  21 S22G30    30.03F HX  99
BISMARCK       CLOUDY    87  74  64 E12       30.02R HX  95
PIERRE         SUNNY     93  72  50 E9        29.97F HX 101
SIOUX FALLS    MOSUNNY   92  77  61 E10       29.98F HX 105
OMAHA          MOSUNNY   92  76  59 SE17G24   29.94F HX 104
GRAND ISLAND   SUNNY     95  76  53 VRB5      29.98R HX 108
KANSAS CITY    PTSUNNY   89  75  63 S22       30.03F HX  99
WICHITA        MOSUNNY  103  66  30 S17G24    30.00F HX 107
OKLAHOMA CITY  SUNNY     98  66  34 S10       30.06F HX 101
DALLAS         MOSUNNY   97  66  36 S9        30.06F HX 100
AMARILLO       SUNNY     96  56  26 S13G23    30.15F HX  94
DODGE CITY     SUNNY     97  64  33 S15       30.04F HX  99
HAYS           MOSUNNY  104  64  27 W14       29.97F HX 107
GOODLAND       CLOUDY    96  56  26 CALM      30.09F HX  94
$$




USA.gov is the U.S. government's official web portal to all federal, state and local government web resources and services.